K4TPD-5 Weather Reports


time (UTC)temp
C
wind
direction
speed
KPH
gust
KPH
rain 1hr
cm
rain 24hr
cm
rain mn
cm
humidity
%
barometer
mb
20260505124551 16 216 0.0 0.0 0.00 0.00 0.00 93 1014.8
20260505124031 16 216 0.0 1.6 0.00 0.00 0.00 93 1014.7
20260505123533 15 216 0.0 1.6 0.00 0.00 0.00 93 1014.6
20260505123037 15 215 0.0 1.6 0.00 0.00 0.00 94 1014.5
20260505122539 15 215 0.0 1.6 0.00 0.00 0.00 94 1014.5
20260505122102 15 90 0.0 1.6 0.00 0.00 0.00 95 1014.5
20260505121530 14 90 0.0 1.6 0.00 0.00 0.00 95 1014.4
20260505121031 14 90 0.0 0.0 0.00 0.00 0.00 94 1014.1
20260505120533 13 90 0.0 0.0 0.00 0.00 0.00 93 1014.2
20260505120037 13 90 0.0 0.0 0.00 0.00 0.00 93 1014.2
20260505115559 13 90 0.0 0.0 0.00 0.00 0.00 93 1014.1
20260505115101 13 90 0.0 0.0 0.00 0.00 0.00 93 1014.0
20260505114525 13 90 0.0 0.0 0.00 0.00 0.00 92 1014.0
20260505114027 13 90 0.0 0.0 0.00 0.00 0.00 92 1013.9
20260505113529 13 90 0.0 0.0 0.00 0.00 0.00 92 1013.8
20260505113033 13 90 0.0 0.0 0.00 0.00 0.00 91 1014.0
20260505112533 13 90 0.0 0.0 0.00 0.00 0.00 91 1013.9
20260505112035 12 90 0.0 0.0 0.00 0.00 0.00 91 1013.9
20260505111540 12 90 0.0 0.0 0.00 0.00 0.00 91 1013.9
20260505111025 12 90 0.0 0.0 0.00 0.00 0.00 90 1013.7
20260505110528 12 90 0.0 0.0 0.00 0.00 0.00 90 1013.6
20260505102051 13 90 0.0 0.0 0.00 0.00 0.00 88 1013.8
20260505101535 13 90 0.0 0.0 0.00 0.00 0.00 88 1013.8
20260505101037 13 90 0.0 0.0 0.00 0.00 0.00 88 1013.8
20260505100539 13 90 0.0 0.0 0.00 0.00 0.00 87 1013.8
20260505100027 13 90 0.0 0.0 0.00 0.00 0.00 87 1013.8
20260505095548 13 90 0.0 0.0 0.00 0.00 0.00 87 1013.8
20260505095030 13 90 0.0 0.0 0.00 0.00 0.00 87 1014.0
20260505094554 13 90 0.0 0.0 0.00 0.00 0.00 87 1013.8
20260505094035 13 90 0.0 0.0 0.00 0.00 0.00 86 1013.6
20260505093537 13 90 0.0 0.0 0.00 0.00 0.00 86 1013.4
20260505093041 13 90 0.0 0.0 0.00 0.00 0.00 86 1013.3
20260505092522 13 90 0.0 0.0 0.00 0.00 0.00 86 1013.4
20260505092045 14 90 0.0 0.0 0.00 0.00 0.00 87 1013.5
20260505091528 14 80 0.0 0.0 0.00 0.00 0.00 87 1013.6
20260505091029 14 80 0.0 0.0 0.00 0.00 0.00 87 1013.3
20260505090531 14 80 0.0 0.0 0.00 0.00 0.00 87 1013.4
20260505090035 14 80 0.0 0.0 0.00 0.00 0.00 88 1013.3
20260505085536 14 80 0.0 0.0 0.00 0.00 0.00 87 1013.4
20260505085023 14 80 0.0 0.0 0.00 0.00 0.00 89 1013.4
20260505084528 14 77 0.0 1.6 0.00 0.00 0.00 88 1013.3
20260505084029 14 77 0.0 6.4 0.00 0.00 0.00 89 1013.3
20260505083551 14 99 0.0 6.4 0.00 0.00 0.00 91 1013.5
20260505083034 14 123 3.2 6.4 0.00 0.00 0.00 90 1013.6
20260505082536 14 120 1.6 6.4 0.00 0.00 0.00 90 1013.2
20260505082039 14 174 0.0 0.0 0.00 0.00 0.00 90 1013.1
20260505081542 14 271 0.0 0.0 0.00 0.00 0.00 88 1013.0
20260505081024 14 271 0.0 0.0 0.00 0.00 0.00 87 1012.8
20260505080526 14 271 0.0 0.0 0.00 0.00 0.00 87 1012.7
20260505080031 14 271 0.0 0.0 0.00 0.00 0.00 86 1012.6
20260505075533 14 271 0.0 0.0 0.00 0.00 0.00 85 1012.6
20260505075035 14 271 0.0 0.0 0.00 0.00 0.00 85 1012.7
20260505074543 14 271 0.0 0.0 0.00 0.00 0.00 85 1012.7
20260505074024 14 271 0.0 0.0 0.00 0.00 0.00 86 1012.6
20260505073547 14 271 0.0 0.0 0.00 0.00 0.00 86 1012.6
20260505073029 14 271 0.0 0.0 0.00 0.00 0.00 86 1012.6
20260505072531 14 271 0.0 0.0 0.00 0.00 0.00 86 1012.6
20260505072034 14 271 0.0 0.0 0.00 0.00 0.00 85 1012.7
20260505071558 14 271 0.0 0.0 0.00 0.00 0.00 84 1012.7
20260505071040 14 271 0.0 0.0 0.00 0.00 0.00 83 1012.7
20260505070543 14 271 0.0 0.0 0.00 0.00 0.00 83 1012.8
20260505070046 14 271 0.0 0.0 0.00 0.00 0.00 83 1012.8
20260505065526 14 271 0.0 0.0 0.00 0.00 0.00 82 1012.8
20260505065029 14 271 0.0 0.0 0.00 0.00 0.00 82 1012.9
20260505064534 14 271 0.0 1.6 0.00 0.00 0.00 80 1012.9
20260505064035 14 271 0.0 1.6 0.00 0.00 0.00 80 1012.8
20260505063538 14 273 0.0 0.0 0.00 0.00 0.00 77 1012.7
20260505063046 14 273 0.0 0.0 0.00 0.00 0.00 76 1012.6
20260505062527 14 273 0.0 0.0 0.00 0.00 0.00 73 1012.5
20260505062029 14 273 0.0 0.0 0.00 0.00 0.00 73 1012.6
20260505061534 14 273 0.0 0.0 0.00 0.00 0.00 73 1012.8
20260505061035 14 273 0.0 0.0 0.00 0.00 0.00 72 1012.8
20260505060538 14 273 0.0 0.0 0.00 0.00 0.00 72 1012.8
20260505060042 15 273 0.0 0.0 0.00 0.00 0.00 71 1012.9
20260505055602 15 273 0.0 0.0 0.00 0.00 0.00 72 1013.0
20260505055023 15 273 0.0 0.0 0.00 0.00 0.00 72 1013.2
20260505054527 15 273 0.0 0.0 0.00 0.00 0.00 70 1013.2
20260505054029 15 273 0.0 0.0 0.00 0.00 0.00 71 1013.4
20260505053531 15 273 0.0 0.0 0.00 0.00 0.00 72 1013.3
20260505053035 15 273 0.0 0.0 0.00 0.00 0.00 74 1013.3
20260505052522 15 273 0.0 0.0 0.00 0.00 0.00 70 1013.1
20260505052024 15 273 0.0 0.0 0.00 0.00 0.00 70 1013.3
20260505051528 15 273 0.0 0.0 0.00 0.00 0.00 70 1013.6
20260505051029 15 273 0.0 0.0 0.00 0.00 0.00 69 1013.5
20260505050552 15 273 0.0 0.0 0.00 0.00 0.00 69 1013.4
20260505041543 16 273 0.0 0.0 0.00 0.00 0.00 68 1014.1
20260505041024 17 273 0.0 0.0 0.00 0.00 0.00 65 1013.9
20260505040527 17 273 0.0 0.0 0.00 0.00 0.00 66 1013.9
20260505040031 17 273 0.0 0.0 0.00 0.00 0.00 66 1013.9
20260505035553 17 273 0.0 0.0 0.00 0.00 0.00 66 1013.9
20260505035034 17 273 0.0 0.0 0.00 0.00 0.00 65 1014.0
20260505034539 17 273 0.0 0.0 0.00 0.00 0.00 67 1014.0
20260505034040 18 273 0.0 0.0 0.00 0.00 0.00 64 1014.2
20260505033524 18 273 0.0 0.0 0.00 0.00 0.00 63 1014.2
20260505033028 18 273 0.0 0.0 0.00 0.00 0.00 63 1014.2
20260505032530 18 273 0.0 0.0 0.00 0.00 0.00 65 1014.1
20260505032037 18 273 0.0 0.0 0.00 0.00 0.00 63 1014.1
20260505031541 18 273 0.0 0.0 0.00 0.00 0.00 62 1014.0
20260505031022 18 271 0.0 0.0 0.00 0.00 0.00 62 1014.0
20260505030545 19 271 0.0 0.0 0.00 0.00 0.00 60 1014.1
20260505030029 19 271 0.0 0.0 0.00 0.00 0.00 61 1014.3
20260505025530 19 281 0.0 0.0 0.00 0.00 0.00 61 1014.2
20260505025032 19 264 0.0 0.0 0.00 0.00 0.00 61 1014.3
20260505024535 20 267 0.0 0.0 0.00 0.00 0.00 60 1014.3
20260505024036 20 257 0.0 0.0 0.00 0.00 0.00 60 1014.3
20260505023558 20 257 0.0 0.0 0.00 0.00 0.00 59 1014.3
20260505023041 20 233 0.0 0.0 0.00 0.00 0.00 59 1014.3
20260505022602 20 238 0.0 0.0 0.00 0.00 0.00 59 1014.2
20260505022023 20 259 0.0 0.0 0.00 0.00 0.00 59 1014.2
20260505021527 20 259 0.0 0.0 0.00 0.00 0.00 59 1014.1
20260505021032 21 230 0.0 0.0 0.00 0.00 0.00 58 1014.1
20260505020535 21 248 0.0 0.0 0.00 0.00 0.00 58 1014.2
20260505020040 21 250 0.0 3.2 0.00 0.00 0.00 58 1014.2
20260505015542 21 235 0.0 3.2 0.00 0.00 0.00 57 1014.2
20260505015023 21 229 0.0 1.6 0.00 0.00 0.00 57 1014.0
20260505014527 21 240 0.0 3.2 0.00 0.00 0.00 56 1013.9
20260505014029 21 234 0.0 6.4 0.00 0.00 0.00 56 1013.9
20260505013531 21 261 0.0 6.4 0.00 0.00 0.00 56 1013.9
20260505013034 22 249 0.0 14.5 0.00 0.00 0.00 56 1013.9
20260505012536 22 248 6.4 14.5 0.00 0.00 0.00 55 1013.8
20260505012039 22 235 3.2 14.5 0.00 0.00 0.00 54 1013.8
20260505011526 22 248 3.2 14.5 0.00 0.00 0.00 54 1013.8
20260505011028 22 249 0.0 14.5 0.00 0.00 0.00 54 1013.6
20260505010550 22 232 0.0 9.7 0.00 0.00 0.00 54 1013.6
20260505010033 22 244 4.8 14.5 0.00 0.00 0.00 54 1013.7
20260505005535 22 242 1.6 14.5 0.00 0.00 0.00 54 1013.4
20260505005038 23 246 1.6 11.3 0.00 0.00 0.00 54 1013.4
20260505004542 23 246 1.6 16.1 0.00 0.00 0.00 53 1013.3
20260505004024 23 209 0.0 16.1 0.00 0.00 0.00 50 1013.2
20260505003546 23 250 6.4 12.9 0.00 0.00 0.00 51 1013.2
20260505003030 23 244 4.8 14.5 0.00 0.00 0.00 51 1013.1
20260505002532 23 240 4.8 14.5 0.00 0.00 0.00 51 1013.0
20260505002056 23 236 1.6 14.5 0.00 0.00 0.00 52 1013.0
20260505001539 23 248 4.8 19.3 0.00 0.00 0.00 51 1012.9
20260505001041 23 208 1.6 11.3 0.00 0.00 0.00 50 1012.8
20260505000527 23 163 0.0 0.0 0.00 0.00 0.00 44 1012.5
20260505000032 24 163 0.0 0.0 0.00 0.00 0.00 47 1012.5
20260504235555 24 163 0.0 0.0 0.00 0.00 0.00 45 1012.6
20260504235035 24 163 0.0 0.0 0.00 0.00 0.00 41 1012.5
20260504234539 25 163 0.0 0.0 0.00 0.00 0.00 41 1012.5
20260504234040 25 163 0.0 0.0 0.00 0.00 0.00 44 1012.4
20260504233523 25 163 0.0 0.0 0.00 0.00 0.00 44 1012.3
20260504233027 25 163 0.0 0.0 0.00 0.00 0.00 43 1012.5
20260504232528 25 163 0.0 0.0 0.00 0.00 0.00 42 1012.5
20260504232050 26 163 0.0 0.0 0.00 0.00 0.00 42 1012.5
20260504231534 26 163 0.0 0.0 0.00 0.00 0.00 41 1012.5
20260504231036 26 226 0.0 0.0 0.00 0.00 0.00 40 1012.4
20260504230558 26 226 0.0 0.0 0.00 0.00 0.00 41 1012.5
20260504225541 27 226 0.0 0.0 0.00 0.00 0.00 36 1012.5
20260504225024 27 226 0.0 0.0 0.00 0.00 0.00 31 1012.6
20260504224531 27 226 0.0 0.0 0.00 0.00 0.00 34 1012.6
20260504224034 27 226 0.0 1.6 0.00 0.00 0.00 32 1012.7
20260504223536 27 226 0.0 1.6 0.00 0.00 0.00 31 1012.8
20260504223041 27 225 0.0 6.4 0.00 0.00 0.00 30 1012.8
20260504222542 28 225 0.0 6.4 0.00 0.00 0.00 30 1012.8
20260504222025 28 221 0.0 6.4 0.00 0.00 0.00 31 1012.8
20260504221550 28 219 0.0 4.8 0.00 0.00 0.00 27 1012.9
20260504221029 29 219 0.0 3.2 0.00 0.00 0.00 29 1012.9
20260504220553 29 219 1.6 3.2 0.00 0.00 0.00 29 1012.9
20260504220036 29 219 0.0 3.2 0.00 0.00 0.00 28 1012.7
20260504215536 30 219 0.0 3.2 0.00 0.00 0.00 27 1012.7
20260504215038 30 220 0.0 1.6 0.00 0.00 0.00 29 1012.7
20260504214541 29 217 0.0 1.6 0.00 0.00 0.00 28 1012.7
20260504214026 29 217 0.0 6.4 0.00 0.00 0.00 28 1012.8
20260504213549 29 217 1.6 6.4 0.00 0.00 0.00 28 1012.7
20260504213032 29 213 0.0 6.4 0.00 0.00 0.00 29 1012.7
20260504212535 29 215 1.6 6.4 0.00 0.00 0.00 29 1012.8
20260504212037 29 238 0.0 6.4 0.00 0.00 0.00 30 1012.7
20260504211541 29 238 0.0 3.2 0.00 0.00 0.00 30 1012.8
20260504211044 29 238 0.0 1.6 0.00 0.00 0.00 30 1012.9
20260504210526 28 240 0.0 3.2 0.00 0.00 0.00 33 1012.9
20260504210030 28 198 0.0 3.2 0.00 0.00 0.00 30 1012.8